Location: Saratoga Springs
(43.0831°N, 73.7850°W)
Time: 02:56:59
(UTC-04:00)

Vanguard 1 Rocket - Pass Details

Date: 13 April 2024
Orbit: 651 x 4220 km, 34.3° (Epoch: 17 May)

Event Time Altitude Azimuth Distance (km) Brightness Sun altitude
Rises 22:55:53 0° 257° (WSW) 3,998 11.0 -30.7°
Reaches altitude 10° 22:58:07 10° 252° (WSW) 3,314 10.4 -31.0°
Maximum altitude 23:06:29 56° 177° (S) 2,266 8.9 -31.8°
Enters shadow 23:07:05 55° 167° (SSE) 2,329 9.0 -31.9°
Drops below altitude 10° 23:22:53 10° 106° (ESE) 6,179 - -33.3°
Exits shadow 23:28:00 - 104° (ESE) 7,472 11.7 -33.7°
Sets 23:28:54 0° 103° (ESE) 7,687 11.8 -33.8°
